チュリュモフ-ゲラシメンコ彗星

67P/Churyumov-Gerasimenko (2015)

English version
Home page
Updated on May 22, 2017

---------------------------------------------------------------------

・ プロフィール

・ 写真集

・ 軌道要素

Epoch 2015 Aug. 6.0 TT = JDT 2457240.5
T 2015 Aug. 13.08425 TT                                 MPC
q   1.2432627            (2000.0)            P               Q
n   0.15301476     Peri.   12.79597     +0.45633726     -0.88481961
a   3.4618945      Node    50.13553     +0.80520380     +0.36563809
e   0.6408721      Incl.    7.04024     +0.37868608     +0.28879586
P   6.44
From 3188 observations 1969 Sept. 11-2014 July 2, mean residual 0".7.
     Nongravitational parameters A1 = +0.12, A2 = +0.0099.

・ 星図

・ 光度変化

        m1 = 9.5 + 5 logΔ + 14.0 log r(t - 40)

---------------------------------------------------------------------

軌道要素はM.P.E.C. 2014-N57に掲載されたものです。
星図はステラナビゲータ Ver.8 (アストロアーツ) で作成したものです。
光度グラフはComet for Windowsで作成したものです。

---------------------------------------------------------------------

Copyright(C) Seiichi Yoshida (comet@aerith.net). All rights reserved.